Weather History for Bartow, FL

Change the Weather History Date:

Tuesday, October 18, 2011

  Actual Average Record
Temperature  
Mean Temperature 74 °F -  
Max Temperature 77 °F 85 °F 94 °F (1980)
Min Temperature 71 °F 64 °F 42 °F (1943)
Cooling Degree Days 9    
Growing Degree Days 24 (Base 50)    
Moisture  
Dew Point 72 °F    
Average Humidity 97    
Maximum Humidity 100    
Minimum Humidity 83    
Precipitation  
Precipitation 0.10 in - - ()
Sea Level Pressure  
Sea Level Pressure 29.75 in    
Wind  
Wind Speed 5 mph (ESE)    
Max Wind Speed 16 mph    
Max Gust Speed 23 mph    
Visibility 8 miles    
Events Rain    
Averages and records for this station are not official NWS values.
T = Trace of Precipitation, MM = Missing Value Source: NWS Daily Summary

Daily Weather History Graph

Daily Weather History Graph

Search for Another Location

Airport:

Trip Planner

Search our weather history database for the weather conditions in past years. The results will help you decide how hot, cold, wet, or windy it might be!

Date:

Astronomy

Oct. 18, 2011 Rise Set
Actual Time 7:29 AM EDT 6:55 PM EDT
Civil Twilight 7:05 AM EDT 7:18 PM EDT
Nautical Twilight 6:38 AM EDT 7:46 PM EDT
Astronomical Twilight 6:10 AM EDT 8:13 PM EDT
Moon 11:51 PM EDT (10/18) 1:01 PM EDT (10/18)
Length of Visible Light 12h 13m
Length of Day
11h 26m
Waning Gibbous, 65% of the Moon is Illuminated
Oct 18
Waning Gibbous
Oct 19
Last Quarter
Oct 26
New
Nov 2
First Quarter
Nov 10
Full

Hourly Weather History & Observations

Time (EDT) Temp. Dew Point Humidity Pressure Visibility Wind Dir Wind Speed Gust Speed Precip Events Conditions
12:15 AM 73.4 °F 73.4 °F 100% 29.88 in 10.0 mi Calm Calm - N/A   Partly Cloudy
12:35 AM 73.4 °F 73.4 °F 100% 29.88 in 10.0 mi East 5.8 mph - N/A   Partly Cloudy
12:55 AM 73.4 °F 73.4 °F 100% 29.88 in 10.0 mi East 4.6 mph - N/A   Partly Cloudy
1:15 AM 73.4 °F 73.4 °F 100% 29.87 in 10.0 mi Calm Calm - N/A   Clear
1:35 AM 71.6 °F 71.6 °F 100% 29.87 in 10.0 mi East 4.6 mph - N/A   Clear
1:55 AM 71.6 °F 71.6 °F 100% 29.87 in 10.0 mi Calm Calm - N/A   Mostly Cloudy
2:15 AM 73.4 °F 73.4 °F 100% 29.86 in 9.0 mi ESE 6.9 mph - N/A   Overcast
2:35 AM 71.6 °F 71.6 °F 100% 29.84 in 7.0 mi East 6.9 mph - N/A   Scattered Clouds
2:55 AM 71.6 °F 71.6 °F 100% 29.84 in 10.0 mi Calm Calm - N/A   Scattered Clouds
3:15 AM 71.6 °F 71.6 °F 100% 29.83 in 9.0 mi Calm Calm - N/A   Partly Cloudy
3:35 AM 71.6 °F 71.6 °F 100% 29.83 in 10.0 mi Calm Calm - N/A   Clear
3:55 AM 71.6 °F 71.6 °F 100% 29.82 in 9.0 mi Calm Calm - N/A   Clear
4:15 AM 71.6 °F 71.6 °F 100% 29.83 in 8.0 mi Calm Calm - N/A   Scattered Clouds
4:35 AM 71.6 °F 71.6 °F 100% 29.82 in 7.0 mi Calm Calm - N/A   Mostly Cloudy
5:15 AM 71.6 °F 71.6 °F 100% 29.82 in 10.0 mi Calm Calm - N/A   Overcast
5:35 AM 71.6 °F - N/A% 29.82 in 10.0 mi Calm Calm - N/A   Overcast
5:55 AM 71.6 °F - N/A% 29.82 in 10.0 mi Calm Calm - N/A   Scattered Clouds
6:15 AM 71.6 °F - N/A% 29.81 in 10.0 mi ESE 5.8 mph - N/A   Clear
6:35 AM 71.6 °F - N/A% 29.82 in 10.0 mi Calm Calm - N/A   Clear
6:55 AM 71.6 °F - N/A% 29.82 in 10.0 mi East 5.8 mph - N/A   Partly Cloudy
7:15 AM 71.6 °F - N/A% 29.82 in 10.0 mi East 4.6 mph - N/A   Clear
7:30 AM 71.6 °F 71.6 °F 100% 29.82 in 10.0 mi East 5.8 mph - N/A   Overcast
7:52 AM 71.6 °F 71.6 °F 100% 29.81 in 10.0 mi East 6.9 mph - N/A   Overcast
8:53 AM 71.6 °F 69.8 °F 94% 29.82 in 10.0 mi East 6.9 mph - N/A   Overcast
9:54 AM 73.4 °F 69.8 °F 88% 29.82 in 12.0 mi ESE 11.5 mph - N/A   Overcast
10:55 AM 73.4 °F 73.4 °F 100% 29.81 in 12.0 mi SE 11.5 mph - N/A   Overcast
11:54 AM 75.2 °F 73.4 °F 94% 29.79 in 12.0 mi SE 13.8 mph - N/A   Overcast
12:51 PM 77.0 °F 71.6 °F 83% 29.86 in 12.0 mi SE 13.8 mph 23.0 mph N/A   Overcast
1:51 PM 75.2 °F 71.6 °F 89% 29.73 in 12.0 mi SE 16.1 mph 23.0 mph N/A   Overcast
2:15 PM 75.2 °F 69.8 °F 83% 29.72 in 8.0 mi SE 11.5 mph 23.0 mph N/A   Overcast
2:55 PM 75.2 °F 69.8 °F 83% 29.69 in 4.0 mi SE 12.7 mph 20.7 mph N/A   Haze
3:15 PM 75.2 °F 71.6 °F 89% 29.69 in 1.8 mi SE 10.4 mph - N/A   Mostly Cloudy
3:35 PM 73.4 °F 71.6 °F 94% 29.69 in 2.5 mi SE 6.9 mph - N/A   Light Drizzle
3:55 PM 73.4 °F 73.4 °F 100% 29.69 in 7.0 mi ESE 6.9 mph - N/A   Light Drizzle
4:15 PM 75.2 °F 75.2 °F 100% 29.68 in 10.0 mi East 6.9 mph - N/A   Overcast
4:35 PM 73.4 °F 73.4 °F 100% 29.68 in 5.0 mi ESE 9.2 mph - N/A Rain Light Rain
4:55 PM 73.4 °F 73.4 °F 100% 29.66 in 2.5 mi ESE 8.1 mph - 0.02 in Rain Light Rain
5:15 PM 73.4 °F 73.4 °F 100% 29.67 in 3.0 mi ESE 4.6 mph - N/A Rain Light Rain
5:35 PM 73.4 °F 73.4 °F 100% 29.67 in 5.0 mi ESE 5.8 mph - 0.01 in Rain Light Rain
5:55 PM 73.4 °F 73.4 °F 100% 29.67 in 2.0 mi Calm Calm - 0.03 in Rain Heavy Rain
6:15 PM 73.4 °F 73.4 °F 100% 29.66 in 1.0 mi East 8.1 mph - 0.04 in Rain Rain
6:35 PM 73.4 °F 73.4 °F 100% 29.64 in 7.0 mi East 10.4 mph - 0.04 in Rain Light Rain
6:55 PM 73.4 °F - N/A% 29.64 in 7.0 mi East 8.1 mph - 0.04 in   Scattered Clouds
7:15 PM 73.4 °F - N/A% 29.64 in 10.0 mi ESE 8.1 mph - N/A   Mostly Cloudy
7:35 PM 73.4 °F - N/A% 29.65 in 10.0 mi ESE 6.9 mph - N/A   Mostly Cloudy
7:55 PM 73.4 °F - N/A% 29.65 in 10.0 mi ESE 4.6 mph - N/A   Overcast
8:15 PM 73.4 °F - N/A% 29.65 in 10.0 mi SE 9.2 mph - N/A   Overcast
8:35 PM 73.4 °F - N/A% 29.64 in 10.0 mi SE 10.4 mph - N/A   Overcast
8:55 PM 73.4 °F - N/A% 29.63 in 5.0 mi SE 10.4 mph 17.3 mph N/A Rain Light Rain
9:15 PM 73.4 °F - N/A% 29.62 in 2.5 mi SE 13.8 mph - N/A Rain Light Rain
9:35 PM 73.4 °F - N/A% 29.61 in 5.0 mi SE 11.5 mph 18.4 mph 0.01 in   Haze
10:15 PM 73.4 °F - N/A% 29.60 in 9.0 mi SE 10.4 mph - N/A   Overcast
10:35 PM 73.4 °F - N/A% 29.61 in 8.0 mi SSE 12.7 mph - N/A   Overcast
10:55 PM 73.4 °F - N/A% 29.61 in 8.0 mi South 11.5 mph 16.1 mph N/A   Overcast
11:15 PM 75.2 °F - N/A% 29.61 in 10.0 mi South 10.4 mph - N/A   Overcast
11:35 PM 75.2 °F - N/A% 29.60 in 9.0 mi South 10.4 mph - N/A   Overcast